Location: Kernascl�den
(48.0062°N, 3.3198°W)
Time: 22:50:44
(UTC+00:00)

CZ-2C R/B - Pass Details

Date: 21 January 2021
Orbit: 785 x 870 km, 98.2° (Epoch: 04 March)

Event Time Altitude Azimuth Distance (km) Brightness Sun altitude
Exits shadow 19:08:14 45° 91° (E) 1,164 2.9 -21.7°
Maximum altitude 19:08:26 45° 98° (E) 1,161 2.9 -21.7°
Drops below altitude 10° 19:13:46 10° 170° (S) 2,506 5.1 -22.6°
Sets 19:16:16 0° 177° (S) 3,442 5.9 -23.0°
